Location: Unspecified
(0.0000°N, 0.0000°E)
Time: 08:08:54
(UTC+00:00)

LES 2 - Pass Details

Date: 16 October 2025
Orbit: 2783 x 14792 km, 32.1° (Epoch: 30 October)

Event Time Altitude Azimuth Distance (km) Brightness Sun altitude
Rises 18:39:50 0° 305° (NW) 13,898 ? -13.4°
Reaches altitude 10° 18:54:23 10° 312° (NW) 10,775 ? -17.0°
Maximum altitude 19:24:05 53° 27° (NNE) 3,975 ? -24.3°
Enters shadow 19:31:03 35° 82° (E) 4,104 ? -26.0°
